Flag for Norway Weather past 2 weeks in Langesund, Norway

Now
37 °F

Chilly.


Feels Like: 37 °F
Forecast: 31 / 40 °F
Wind: 2 mph from Northwest

Location: Jomfruland Fyr

Current Time: Mar 2, 2015 at 9:34:17 PM

Latest Report: Mar 2, 2015 at 8:00 PM


Visibility: N/A

Pressure: 29.26 "Hg

Humidity: 93%

Dew point: 35 °F

Location of LangesundLocation

Historic Weather in Langesund — Graph

°F

Langesund temperature yesterday

Maximum temperature yesterday: 42 °F (at 2:00 PM)
Minimum temperature yesterday: 36 °F (at 7:00 AM)
Average temperature yesterday: 39 °F

Past Weeks' High & Low Weather Summary

 TemperatureHumidityPressure
High45 °F (Feb 18, 3:00 PM)96% (Feb 19, 9:00 AM)30.43 "Hg (Feb 19, 9:00 AM)
Low30 °F (Feb 26, 2:00 AM)45% (Feb 22, 12:00 PM)28.94 "Hg (Feb 23, 11:00 AM)
Average39 °F87%29.61 "Hg
* Reported Feb 15 8:00 PM — Mar 2 8:00 PM, Langesund, Weather by CustomWeather, © 2015

Note: Actual official high and low records may vary slightly from our data, if they occured in-between our weather recording intervals... More about our weather records

Advertising

Langesund weather history for previous 24 hours

 ConditionsComfort  
Time TempWeatherWind HumidityBarometerVisibility
8:00 PM
Mon, Mar 2
37 °FChilly.2 mph93%29.26 "HgN/A
7:00 PM39 °FChilly.2 mph92%29.23 "HgN/A
6:00 PM39 °FChilly.3 mph90%29.23 "HgN/A
5:00 PM40 °FChilly.5 mph89%29.21 "HgN/A
4:00 PM40 °FQuite cool.6 mph89%29.18 "HgN/A
3:00 PM41 °FQuite cool.6 mph86%29.18 "HgN/A
2:00 PM41 °FQuite cool.7 mph87%29.18 "HgN/A
1:00 PM41 °FQuite cool.6 mph87%29.15 "HgN/A
12:00 PM40 °FChilly.7 mph88%29.15 "HgN/A
11:00 AM39 °FChilly.7 mph88%29.15 "HgN/A
10:00 AM39 °FChilly.5 mph88%29.12 "HgN/A
9:00 AM39 °FChilly.6 mph91%29.12 "HgN/A
8:00 AM39 °FChilly.8 mph91%29.12 "HgN/A
7:00 AM39 °FChilly.6 mph93%29.09 "HgN/A
6:00 AM39 °FChilly.5 mph92%29.09 "HgN/A
5:00 AM39 °FChilly.6 mph91%29.09 "HgN/A
4:00 AM39 °FChilly.7 mph91%29.06 "HgN/A
3:00 AM39 °FChilly.8 mph92%29.09 "HgN/A
2:00 AM40 °FChilly.9 mph92%29.09 "HgN/A
1:00 AM40 °FChilly.9 mph92%29.06 "HgN/A
12:00 AM40 °FChilly.8 mph93%29.06 "HgN/A
11:00 PM
Sun, Mar 1
40 °FQuite cool.8 mph93%29.06 "HgN/A
10:00 PM40 °FQuite cool.8 mph92%29.06 "HgN/A
9:00 PM40 °FChilly.10 mph92%29.03 "HgN/A
Weather by CustomWeather, © 2015

See weather overviewHow to use our weather pages